TimeCDT,TemperatureF,Dew PointF,Humidity,Sea Level PressureIn,VisibilityMPH,Wind Direction,Wind SpeedMPH,Gust SpeedMPH,PrecipitationIn,Events,Conditions,WindDirDegrees,DateUTC
12:53 AM,52.0,45.0,77,30.15,10.0,Calm,Calm,-,N/A,,Clear,0,2013-10-27 05:53:00
1:53 AM,51.1,44.1,77,30.14,10.0,North,5.8,-,N/A,,Clear,10,2013-10-27 06:53:00
2:53 AM,52.0,44.1,74,30.13,10.0,North,5.8,-,N/A,,Clear,10,2013-10-27 07:53:00
3:53 AM,52.0,43.0,71,30.13,10.0,NNE,4.6,-,N/A,,Clear,30,2013-10-27 08:53:00
4:53 AM,50.0,43.0,77,30.13,10.0,Calm,Calm,-,N/A,,Clear,0,2013-10-27 09:53:00
5:53 AM,50.0,43.0,77,30.14,10.0,Calm,Calm,-,N/A,,Clear,0,2013-10-27 10:53:00
6:53 AM,48.9,45.0,86,30.15,10.0,Calm,Calm,-,N/A,,Clear,0,2013-10-27 11:53:00
7:53 AM,55.9,48.9,77,30.16,10.0,NE,4.6,-,N/A,,Clear,40,2013-10-27 12:53:00
8:53 AM,62.1,46.9,58,30.17,10.0,ENE,3.5,-,N/A,,Clear,60,2013-10-27 13:53:00
9:53 AM,68.0,41.0,37,30.19,10.0,East,5.8,-,N/A,,Clear,90,2013-10-27 14:53:00
10:53 AM,71.1,46.0,41,30.19,10.0,East,4.6,-,N/A,,Clear,90,2013-10-27 15:53:00
11:53 AM,73.0,46.9,39,30.17,10.0,ESE,8.1,-,N/A,,Clear,120,2013-10-27 16:53:00
12:53 PM,73.9,50.0,43,30.15,10.0,ESE,6.9,-,N/A,,Clear,110,2013-10-27 17:53:00
1:53 PM,72.0,51.1,48,30.13,10.0,Variable,3.5,-,N/A,,Clear,0,2013-10-27 18:53:00
2:53 PM,72.0,52.0,49,30.13,10.0,Variable,3.5,-,N/A,,Clear,0,2013-10-27 19:53:00
3:53 PM,71.1,53.1,53,30.13,10.0,SSE,6.9,-,N/A,,Clear,150,2013-10-27 20:53:00
4:53 PM,69.1,54.0,58,30.11,10.0,SE,4.6,-,N/A,,Clear,140,2013-10-27 21:53:00
5:53 PM,66.0,55.0,68,30.11,10.0,Calm,Calm,-,N/A,,Clear,0,2013-10-27 22:53:00
6:53 PM,64.0,55.0,73,30.12,10.0,Calm,Calm,-,0.00,,Clear,0,2013-10-27 23:53:00
7:53 PM,64.0,55.9,75,30.13,10.0,Calm,Calm,-,N/A,,Clear,0,2013-10-28 00:53:00
8:53 PM,64.9,57.0,75,30.13,10.0,ENE,4.6,-,N/A,,Scattered Clouds,60,2013-10-28 01:53:00
9:53 PM,62.1,57.0,84,30.14,10.0,Calm,Calm,-,0.00,,Clear,0,2013-10-28 02:53:00
10:53 PM,62.1,55.9,80,30.15,10.0,North,3.5,-,N/A,,Mostly Cloudy,10,2013-10-28 03:53:00
11:53 PM,61.0,55.0,81,30.14,10.0,Calm,Calm,-,N/A,,Mostly Cloudy,0,2013-10-28 04:53:00